15 daagse weersverwachting Meyrin (CH)

  • Overzicht
  • Per uur
  • 15 dagen
  • Extra
  • Vergelijk
  • Kaarten
  • Dagkaart
  • Meer »
  • Info
  • Statistieken
  • Directe link
    Temp 6h Neerslag Wind  
 08:10     16:49    Daglengte: 8:39 Vandaag
19:00
5.3 mm
4
 08:11     16:49    Daglengte: 8:38 Morgen
01:00
1.2 mm
3
07:00
12.7 mm
4
13:00
 
5
19:00
 
3
 08:11     16:49    Daglengte: 8:38 Vrijdag 13 Dec
01:00
5.7 mm
6
07:00
24.5 mm
7
13:00
33.7 mm
6
19:00
27.6 mm
4
 08:12     16:49    Daglengte: 8:37 Zaterdag 14 Dec
01:00
17.6 mm
6
07:00
35.9 mm
6
13:00
58.0 mm
7
Locatie info
Region: Genf
Latitude: 46.2285°N
Longitude: 6.0722°E
445 masl
Postcode: 1217
Temp/Neerslag /Baro Onweer/DauwpuntSneeuw
    Temp Baro 1h Neerslag Dauwpunt Wind UV BewolkingSneeuw  
 08:10     16:49    Daglengte: 8:39 Vandaag
18:00
Voelt als: -1.6°
1015.1 hPa 3.8 mm
48%
1.4°
5
Windvlaag: 4.5 km/h
90%1 cm
19:00
Voelt als: -1.6°
1015.2 hPa 1.5 mm
82%
1.4°
4
Windvlaag: 3.9 km/h
91%1 cm
20:00
Voelt als: -1.7°
1014.9 hPa 1.2 mm
82%
1.2°
4
Windvlaag: 4.3 km/h
91%1 cm
21:00
Voelt als: -1.6°
1014.2 hPa
39%
1.1°
4
Windvlaag: 4.3 km/h
90%1 cm
22:00
Voelt als: -1.5°
1013.4 hPa
16%
1.1°
3
Windvlaag: 3.7 km/h
85%1 cm
23:00
Voelt als: -1.2°
1012.5 hPa
14%
1.0°
3
Windvlaag: 3.2 km/h
76%1 cm
 08:11     16:49    Daglengte: 8:38 Morgen
00:00
Voelt als: -0.9°
1011.7 hPa
19%
0.8°
2
Windvlaag: 2.4 km/h
76%1 cm
01:00
Voelt als: -1.1°
1010.9 hPa
16%
0.5°
3
Windvlaag: 2.3 km/h
67%1 cm
02:00
Voelt als: -1.5°
1010.4 hPa 1.9 mm
26%
0.6°
3
Windvlaag: 3 km/h
86%1 cm
03:00
Voelt als: -2.2°
1010.6 hPa 2.1 mm
82%
0.6°
5
Windvlaag: 4.6 km/h
80%1 cm
04:00
Voelt als: -2.1°
1010.7 hPa 2.5 mm
82%
0.6°
5
Windvlaag: 5.5 km/h
74%1 cm
05:00
Voelt als: -1.9°
1011.0 hPa 2.0 mm
82%
0.4°
4
Windvlaag: 4.4 km/h
66%1 cm
06:00
Voelt als: -1.9°
1011.6 hPa 2.1 mm
82%
0.1°
4
Windvlaag: 4.4 km/h
54%1 cm
07:00
Voelt als: -2.1°
1011.9 hPa 2.0 mm
82%
-0.0°
4
Windvlaag: 4.3 km/h
52%1 cm
08:00
Voelt als: -2.2°
1012.1 hPa
82%
-0.3°
4
Windvlaag: 4.2 km/h
44%1 cm
09:00
Voelt als: -2.1°
1012.2 hPa
77%
-0.6°
3
Windvlaag: 3.9 km/h
42%1 cm
10:00
Voelt als: -1.6°
1012.1 hPa
29%
-0.5°
4
Windvlaag: 3.5 km/h
46%1 cm
11:00
Voelt als: -0.8°
1011.9 hPa
20%
-0.3°
4
Windvlaag: 3.4 km/h
33%1 cm
12:00
Voelt als: -0.3°
1010.9 hPa
14%
-0.2°
4
Windvlaag: 3.6 km/h
17%1 cm
13:00
Voelt als: -0.2°
1009.8 hPa
14%
-0.8°
5
Windvlaag: 3.7 km/h
23%1 cm
14:00
Voelt als: 0.1°
1008.7 hPa
14%
-0.6°
5
Windvlaag: 3.9 km/h
29%1 cm
15:00
Voelt als: 0.1°
1007.4 hPa
14%
-0.7°
4
Windvlaag: 3.9 km/h
35%1 cm
16:00
Voelt als: -0.3°
1005.8 hPa
14%
-1.2°
4
Windvlaag: 3.6 km/h
6%1 cm
17:00
Voelt als: -2.0°
1004.8 hPa
14%
-2.1°
4
Windvlaag: 3.5 km/h
16%1 cm
18:00
Voelt als: -2.4°
1003.6 hPa
14%
-2.9°
3
Windvlaag: 3.4 km/h
16%1 cm
19:00
Voelt als: -2.4°
1002.2 hPa
14%
-3.3°
3
Windvlaag: 2.8 km/h
56%1 cm
20:00
Voelt als: -2.0°
1000.4 hPa
14%
-3.6°
3
Windvlaag: 2.7 km/h
82%1 cm
21:00
Voelt als: -1.6°
998.8 hPa
14%
-2.7°
4
Windvlaag: 3.5 km/h
89%1 cm
22:00
Voelt als: -1.6°
997.6 hPa
14%
-0.6°
4
Windvlaag: 3.9 km/h
91%1 cm
23:00
Voelt als: -1.7°
996.8 hPa
26%
0.9°
5
Windvlaag: 4.2 km/h
86%1 cm
 08:11     16:49    Daglengte: 8:38 Vrijdag 13 Dec
00:00
Voelt als: -2.3°
996.0 hPa 2.8 mm
82%
0.9°
6
Windvlaag: 6.5 km/h
88%2 cm
01:00
Voelt als: -2.0°
994.6 hPa 2.8 mm
82%
0.8°
6
Windvlaag: 6.9 km/h
87%2 cm
02:00
Voelt als: -1.6°
993.0 hPa 2.6 mm
82%
1.0°
7
Windvlaag: 7.3 km/h
90%2 cm
03:00
Voelt als: -1.5°
991.7 hPa 4.4 mm
82%
1.6°
7
Windvlaag: 7.4 km/h
91%2 cm
04:00
Voelt als: -1.6°
990.6 hPa 3.9 mm
82%
2.1°
7
Windvlaag: 6.8 km/h
91%2 cm
05:00
Voelt als: -1.3°
989.1 hPa 3.9 mm
82%
2.1°
7
Windvlaag: 6.3 km/h
90%2 cm
06:00
Voelt als: -0.5°
987.6 hPa 4.4 mm
82%
2.3°
7
Windvlaag: 6.7 km/h
87%2 cm
07:00
Voelt als: 0.0°
986.6 hPa 5.2 mm
82%
2.8°
7
Windvlaag: 7.2 km/h
88%2 cm
08:00
Voelt als: 0.5°
986.6 hPa 4.9 mm
82%
3.3°
8
Windvlaag: 7.8 km/h
59%2 cm
09:00
Voelt als: 1.1°
987.3 hPa 7.9 mm
82%
3.6°
8
Windvlaag: 7.7 km/h
75%2 cm
10:00
Voelt als: 0.5°
988.7 hPa 4.4 mm
100%
3.8°
7
Windvlaag: 7 km/h
87%2 cm
11:00
Voelt als: 1.2°
989.5 hPa 5.4 mm
100%
3.7°
7
Windvlaag: 6.6 km/h
83%2 cm
12:00
Voelt als: 1.1°
990.3 hPa 5.7 mm
99%
3.3°
7
Windvlaag: 5 km/h
52%2 cm
13:00
Voelt als: 0.9°
990.9 hPa 5.5 mm
100%
2.4°
6
Windvlaag: 4 km/h
76%2 cm
14:00
Voelt als: 0.9°
991.9 hPa 5.4 mm
100%
1.5°
6
Windvlaag: 3.5 km/h
77%2 cm
15:00
Voelt als: 1.3°
993.0 hPa 5.4 mm
59%
1.3°
5
Windvlaag: 2.7 km/h
60%2 cm
16:00
Voelt als: 1.1°
994.2 hPa 5.5 mm
100%
1.1°
5
Windvlaag: 2.6 km/h
86%2 cm
17:00
Voelt als: 0.6°
995.5 hPa 5.6 mm
100%
1.6°
5
Windvlaag: 2.7 km/h
64%2 cm
18:00
Voelt als: 0.5°
996.6 hPa 5.7 mm
59%
1.5°
5
Windvlaag: 2.3 km/h
36%2 cm
19:00
Voelt als: 0.4°
997.9 hPa
93%
1.2°
4
Windvlaag: 1.1 km/h
42%2 cm
20:00
Voelt als: 0.2°
999.0 hPa
53%
0.5°
4
Windvlaag: 1.2 km/h
79%2 cm
21:00
Voelt als: 0.1°
999.5 hPa
53%
0.2°
4
Windvlaag: 6.1 km/h
74%2 cm
22:00
Voelt als: -0.0°
1000.0 hPa
100%
0.2°
5
Windvlaag: 6 km/h
89%2 cm
23:00
Voelt als: -0.8°
1000.4 hPa 7.1 mm
100%
0.0°
6
Windvlaag: 6.4 km/h
86%3 cm
 08:12     16:49    Daglengte: 8:37 Zaterdag 14 Dec
00:00
Voelt als: -1.0°
1000.2 hPa 5.1 mm
100%
-0.0°
5
Windvlaag: 7.6 km/h
89%3 cm
01:00
Voelt als: -1.6°
999.8 hPa 5.5 mm
100%
0.5°
6
Windvlaag: 7.1 km/h
78%3 cm
02:00
Voelt als: -1.4°
1000.1 hPa 5.4 mm
100%
0.8°
6
Windvlaag: 6.8 km/h
76%3 cm
03:00
Voelt als: -0.5°
1000.7 hPa 5.4 mm
100%
1.4°
5
Windvlaag: 6.1 km/h
83%3 cm
04:00
Voelt als: 0.0°
1001.1 hPa 5.3 mm
100%
1.8°
5
Windvlaag: 6 km/h
73%3 cm
05:00
Voelt als: 0.2°
1000.9 hPa 5.6 mm
100%
1.9°
6
Windvlaag: 6.1 km/h
96%3 cm
06:00
Voelt als: 0.4°
1000.5 hPa 6.0 mm
100%
2.5°
7
Windvlaag: 7.2 km/h
81%4 cm
07:00
Voelt als: 1.5°
1001.7 hPa 8.3 mm
96%
3.2°
6
Windvlaag: 5.2 km/h
77%4 cm
08:00
Voelt als: 2.0°
1003.0 hPa 12.7 mm
42%
3.3°
6
Windvlaag: 6.2 km/h
73%4 cm
09:00
Voelt als: 2.9°
1004.2 hPa 12.6 mm
44%
3.8°
6
Windvlaag: 3.7 km/h
65%4 cm
10:00
Voelt als: 3.8°
1005.4 hPa 12.5 mm
45%
4.4°
6
Windvlaag: 4 km/h
67%4 cm
11:00
Voelt als: 4.6°
1006.4 hPa 12.5 mm
42%
4.8°
5
Windvlaag: 5.7 km/h
77%4 cm
12:00
Voelt als: 4.7°
1007.2 hPa 7.6 mm
96%
4.7°
6
Windvlaag: 11.9 km/h
66%4 cm
13:00
Voelt als: 5.0°
1008.0 hPa
86%
5.2°
7
Windvlaag: 6.6 km/h
39%3 cm
14:00
Voelt als: 5.0°
1007.5 hPa
44%
5.0°
5
Windvlaag: 14.2 km/h
45%3 cm
15:00
Voelt als: 5.1°
1008.4 hPa
41%
5.0°
4
Windvlaag: 13.6 km/h
48%3 cm
16:00
Voelt als: 4.7°
1009.1 hPa
77%
4.9°
4
Windvlaag: 13.3 km/h
67%3 cm
17:00
Voelt als: 4.6°
1009.7 hPa
42%
4.8°
4
Windvlaag: 14.2 km/h
71%3 cm
Temp/Neerslag /Baro Onweer/DauwpuntSneeuw
    Temp Baro Neerslag Dauwpunt Wind BewolkingSneeuw  
 08:10     16:49    Daglengte: 8:39 Vandaag
19:00
Voelt als: -1.6°
1015.2 hPa 5.3 mm 1.4°
4
91%1 cm
22:00
Voelt als: -1.5°
1013.4 hPa 1.2 mm 1.1°
3
85%1 cm
 08:11     16:49    Daglengte: 8:38 Morgen
01:00
Voelt als: -1.1°
1010.9 hPa   0.5°
3
67%1 cm
04:00
Voelt als: -2.1°
1010.7 hPa 6.6 mm 0.6°
5
74%1 cm
07:00
Voelt als: -2.1°
1011.9 hPa 6.1 mm -0.0°
4
52%1 cm
10:00
Voelt als: -1.6°
1012.1 hPa   -0.5°
4
46%1 cm
13:00
Voelt als: -0.2°
1009.8 hPa   -0.8°
5
23%1 cm
16:00
Voelt als: -0.3°
1005.8 hPa   -1.2°
4
6%1 cm
19:00
Voelt als: -2.4°
1002.2 hPa   -3.3°
3
56%1 cm
22:00
Voelt als: -1.6°
997.6 hPa   -0.6°
4
91%1 cm
 08:11     16:49    Daglengte: 8:38 Vrijdag 13 Dec
01:00
Voelt als: -2.0°
994.6 hPa 5.7 mm 0.8°
6
87%2 cm
04:00
Voelt als: -1.6°
990.6 hPa 10.9 mm 2.1°
7
91%2 cm
07:00
Voelt als: 0.0°
986.6 hPa 13.5 mm 2.8°
7
88%2 cm
10:00
Voelt als: 0.5°
988.7 hPa 17.2 mm 3.8°
7
87%2 cm
13:00
Voelt als: 0.9°
990.9 hPa 16.5 mm 2.4°
6
76%2 cm
16:00
Voelt als: 1.1°
994.2 hPa 16.3 mm 1.1°
5
86%2 cm
19:00
Voelt als: 0.4°
997.9 hPa 11.3 mm 1.2°
4
42%2 cm
22:00
Voelt als: -0.0°
1000.0 hPa   0.2°
5
89%2 cm
 08:12     16:49    Daglengte: 8:37 Zaterdag 14 Dec
01:00
Voelt als: -1.6°
999.8 hPa 17.6 mm 0.5°
6
78%3 cm
04:00
Voelt als: 0.0°
1001.1 hPa 16.0 mm 1.8°
5
73%3 cm
07:00
Voelt als: 1.5°
1001.7 hPa 19.9 mm 3.2°
6
77%4 cm
10:00
Voelt als: 3.8°
1005.4 hPa 37.9 mm 4.4°
6
67%4 cm
13:00
Voelt als: 5.0°
1008.0 hPa 20.1 mm 5.2°
7
39%3 cm
16:00
Voelt als: 4.7°
1009.1 hPa   4.9°
4
67%3 cm
19:00
Voelt als: 4.3°
1011.2 hPa 38.9 mm 4.8°
3
75%3 cm
22:00
Voelt als: 3.0°
1013.1 hPa 78.4 mm 2.6°
2
79%
 08:13     16:50    Daglengte: 8:37 Zondag 15 Dec
01:00
Voelt als: 3.0°
1012.9 hPa 78.5 mm 2.3°
2
92%
04:00
Voelt als: 3.5°
1012.4 hPa 78.5 mm 2.5°
2
73%
07:00
Voelt als: 4.1°
1011.9 hPa 78.5 mm 2.7°
2
55%
10:00
Voelt als: 5.3°
1011.7 hPa 80.4 mm 3.6°
3
27%
13:00
Voelt als: 6.6°
1011.4 hPa 81.1 mm 4.5°
3
0%
16:00
Voelt als: 4.1°
1011.6 hPa 81.7 mm 3.3°
2
0%
19:00
Voelt als: 1.6°
1011.9 hPa 81.7 mm 1.8°
2
1%
22:00
Voelt als: 0.6°
1013.0 hPa 81.7 mm 1.5°
2
30%
 08:14     16:50    Daglengte: 8:36 Maandag 16 Dec
01:00
Voelt als: -0.5°
1014.1 hPa 81.7 mm 1.1°
2
59%
04:00
Voelt als: 1.2°
1013.6 hPa 81.7 mm 1.0°
1
71%
07:00
Voelt als: 2.7°
1013.2 hPa 81.7 mm 1.1°
1
84%
10:00
Voelt als: 4.6°
1012.5 hPa 81.7 mm 2.6°
1
80%
13:00
1011.6 hPa 81.7 mm 4.0°
1
77%
16:00
1010.2 hPa 81.7 mm 2.3°
1
68%
19:00
1009.0 hPa 81.7 mm 0.6°
1
59%
22:00
1008.3 hPa 81.7 mm 0.5°
0
76%
 08:14     16:50    Daglengte: 8:36 Dinsdag 17 Dec
01:00
1007.7 hPa 81.7 mm 0.2°
1
92%
04:00
Voelt als: 5.4°
1007.0 hPa 81.7 mm 0.1°
1
92%
07:00
1006.3 hPa 81.7 mm 0.2°
1
92%
10:00
Voelt als: 5.2°
1006.9 hPa 81.7 mm 1.3°
1
91%
13:00
Voelt als: 5.3°
1007.4 hPa 81.7 mm 2.3°
1
91%
16:00
Voelt als: 5.1°
1007.7 hPa 81.7 mm 2.0°
2
88%
19:00
Voelt als: 4.9°
1008.0 hPa 82.2 mm 1.9°
2
85%
22:00
Voelt als: 6.1°
1009.7 hPa 82.6 mm 1.7°
1
89%
 08:15     16:50    Daglengte: 8:35 Woensdag 18 Dec
01:00
Voelt als: 6.9°
1011.3 hPa 83.0 mm 1.5°
1
92%
04:00
1012.4 hPa 83.5 mm 1.4°
0
92%
07:00
1013.5 hPa 83.6 mm 1.2°
0
92%
10:00
Voelt als: 5.5°
1014.3 hPa 83.6 mm 2.6°
1
91%
13:00
Voelt als: 5.2°
1015.0 hPa 83.6 mm 3.9°
2
90%
16:00
Voelt als: 5.5°
1015.3 hPa   4.1°
2
90%
19:00
Voelt als: 5.7°
1015.6 hPa 167.1 mm 4.1°
1
91%
 08:16     16:51    Daglengte: 8:35 Donderdag 19 Dec
01:00
Voelt als: 4.0°
1015.6 hPa 167.1 mm 3.0°
1
58%
07:00
1013.8 hPa 167.1 mm 2.3°
0
60%
13:00
Voelt als: 6.4°
1011.3 hPa 167.1 mm 3.8°
1
37%
19:00
Voelt als: 1.7°
1010.5 hPa 167.1 mm 1.3°
1
83%
 08:16     16:51    Daglengte: 8:35 Vrijdag 20 Dec
01:00
Voelt als: 2.3°
1010.4 hPa 167.1 mm 2.0°
0
92%
07:00
-0°
Voelt als: -0.4°
1010.2 hPa 167.1 mm -0.5°
1
92% warningclass
13:00
1008.2 hPa 167.1 mm 3.3°
1
33%
19:00
Voelt als: 4.4°
1006.1 hPa 167.1 mm 1.8°
0
92%
 08:17     16:52    Daglengte: 8:35 Zaterdag 21 Dec
01:00
Voelt als: 3.1°
1018.0 hPa 167.1 mm 1.5°
0
0%
07:00
Voelt als: 2.4°
1016.5 hPa 167.1 mm 0.8°
1
0%
13:00
11°
1016.8 hPa 0.5 mm 6.7°
2
51%
19:00
Voelt als: 5.4°
1017.7 hPa 1.9 mm 4.8°
2
59%
 08:17     16:52    Daglengte: 8:35 Zondag 22 Dec
01:00
Voelt als: 4.1°
1018.6 hPa 1.4 mm 3.5°
2
54%
07:00
Voelt als: 3.9°
1018.6 hPa 1.3 mm 2.5°
1
58%
13:00
Voelt als: 7.5°
1018.2 hPa 1.2 mm 5.0°
2
57%
19:00
Voelt als: 3.6°
1018.5 hPa 1.2 mm 2.6°
1
64%
 08:18     16:53    Daglengte: 8:35 Maandag 23 Dec
01:00
Voelt als: 2.9°
1018.8 hPa 0.8 mm 1.7°
1
61%
07:00
Voelt als: 1.9°
1018.1 hPa 0.9 mm 0.7°
1
53%
13:00
Voelt als: 7.3°
1017.2 hPa 0.7 mm 3.8°
1
50%
19:00
Voelt als: 3.4°
1018.1 hPa 0.5 mm 1.6°
1
53%
 08:18     16:53    Daglengte: 8:35 Dinsdag 24 Dec
01:00
Voelt als: 1.4°
1018.6 hPa 0.6 mm 0.4°
1
49%
07:00
Voelt als: 0.7°
1018.6 hPa 0.5 mm -0.5°
1
48%
13:00
1017.8 hPa 0.2 mm 2.7°
1
41%
19:00
Voelt als: 1.2°
1019.0 hPa 0.3 mm 0.8°
1
43%
 08:18     16:54    Daglengte: 8:36 Woensdag 25 Dec
01:00
Voelt als: 0.4°
1019.9 hPa 0.6 mm -0.1°
1
43%
07:00
Voelt als: 0.0°
1020.0 hPa 0.9 mm -1.1°
1
40%
13:00
Voelt als: 6.9°
1019.1 hPa 1.1 mm 3.0°
1
39%
19:00
Voelt als: 2.4°
1019.5 hPa 1.0 mm 0.9°
1
38%
 08:19     16:55    Daglengte: 8:36 Donderdag 26 Dec
01:00
Voelt als: 0.7°
1019.6 hPa 0.5 mm -0.4°
1
44%
07:00
Voelt als: 0.2°
1018.5 hPa 0.9 mm -0.6°
1
51%
13:00
1017.4 hPa 1.3 mm 2.4°
1
59%
  CAPE Lifted Index Hail Supercell Tornado SRH 3km CL BTM PRES CL TOP PRES Swiss DWD icon SMHI TS
 08:10     16:49    Daglengte: 8:39 Vandaag
18:00 30 J/kg 8.6 K 0 % 0 % 0 % 0 m²/s² 0 0 8.99 61
19:00 36 J/kg 8.3 K 0 % 0 % 0 % 0 m²/s² 0 0 8.78 61
20:00 45 J/kg 8.4 K 0 % 0 % 0 % 0 m²/s² 0 0 9 61
21:00 51 J/kg 7.7 K 0 % 0 % 0 % 0 m²/s² 0 0 9.11 3
22:00 55 J/kg 6.8 K 0 % 0 % 0 % 0 m²/s² 0 0 9.53 3
23:00 65 J/kg 5.8 K 0 % 0 % 0 % 0 m²/s² 0 0 8.74 3
 08:11     16:49    Daglengte: 8:38 Morgen
00:00 68 J/kg 3.8 K 0 % 0 % 0 % 0 m²/s² 0 0 5.36 3
01:00 76 J/kg 2.5 K 0 % 0 % 0 % 0 m²/s² 0 0 3.46 2
02:00 84 J/kg 2.0 K 0 % 0 % 0 % 0 m²/s² 0 0 2.84 3
03:00 107 J/kg 2.6 K 0 % 0 % 0 % 0 m²/s² 0 0 5.03 61
04:00 119 J/kg 1.6 K 0 % 0 % 0 % 0 m²/s² 0 0 2.47 61
05:00 104 J/kg 2.0 K 0 % 0 % 0 % 0 m²/s² 0 0 2.6 61
06:00 98 J/kg 2.6 K 0 % 0 % 0 % 0 m²/s² 0 0 3.35 71
07:00 84 J/kg 4.0 K 0 % 0 % 0 % 0 m²/s² 0 0 5.08 71
08:00 70 J/kg 5.4 K 0 % 0 % 0 % 0 m²/s² 0 0 7.05 71
09:00 62 J/kg 6.6 K 0 % 0 % 0 % 0 m²/s² 0 0 9.33 2
10:00 61 J/kg 7.7 K 0 % 0 % 0 % 0 m²/s² 0 0 11.27 2
11:00 63 J/kg 8.1 K 0 % 0 % 0 % 0 m²/s² 0 0 11.22 2
12:00 60 J/kg 8.1 K 0 % 0 % 0 % 0 m²/s² 0 0 11.7 1
13:00 60 J/kg 7.8 K 0 % 0 % 0 % 0 m²/s² 0 0 11.16 1
14:00 52 J/kg 7.5 K 0 % 0 % 0 % 0 m²/s² 0 0 10.56 2
15:00 34 J/kg 7.8 K 0 % 0 % 0 % 0 m²/s² 0 0 10.2 0
16:00 22 J/kg 8.0 K 0 % 0 % 0 % 0 m²/s² 0 0 9.71 1
17:00 14 J/kg 7.5 K 0 % 0 % 0 % 0 m²/s² 0 0 9 1
18:00 6 J/kg 7.2 K 0 % 0 % 0 % 0 m²/s² 0 0 8.61 1
19:00 4 J/kg 6.5 K 0 % 0 % 0 % 0 m²/s² 0 0 7.91 1
20:00 5 J/kg 5.2 K 0 % 0 % 0 % 0 m²/s² 0 0 6.4 3
21:00 7 J/kg 5.8 K 0 % 0 % 0 % 0 m²/s² 0 0 6.28 3
22:00 9 J/kg 4.7 K 0 % 0 % 0 % 0 m²/s² 0 0 5.06 3
23:00 17 J/kg 3.8 K 0 % 0 % 0 % 0 m²/s² 0 0 4.07 3
 08:11     16:49    Daglengte: 8:38 Vrijdag 13 Dec
00:00 20 J/kg 3.3 K 0 % 0 % 0 % 0 m²/s² 0 0 4.14 71
01:00 25 J/kg 2.3 K 0 % 0 % 0 % 0 m²/s² 0 0 2.75 73
02:00 37 J/kg 1.9 K 0 % 0 % 0 % 0 m²/s² 0 0 2.59 73
03:00 25 J/kg 1.0 K 0 % 0 % 0 % 0 m²/s² 0 0 1.24 73
04:00 28 J/kg 1.5 K 0 % 0 % 0 % 0 m²/s² 0 0 1.83 73
05:00 66 J/kg 1.4 K 0 % 0 % 0 % 0 m²/s² 0 0 2.15 73
06:00 88 J/kg 1.2 K 0 % 0 % 0 % 0 m²/s² 0 0 1.74 61
07:00 144 J/kg 1.0 K 0 % 0 % 0 % 0 m²/s² 0 0 2.05 63
08:00 78 J/kg 2.4 K 0 % 0 % 0 % 0 m²/s² 0 0 3.54 61
09:00 75 J/kg 3.7 K 0 % 0 % 0 % 0 m²/s² 0 0 4.3 1
10:00 67 J/kg 3.7 K 0 % 0 % 0 % 0 m²/s² 0 0 7.84 2
11:00 147 J/kg 2.2 K 0 % 0 % 0 % 0 m²/s² 0 0 4.09 1
12:00 211 J/kg 0.7 K 0 % 0 % 0 % 0 m²/s² 0 0 2.08 2
13:00 205 J/kg 0.4 K 0 % 0 % 0 % 0 m²/s² 0 0 1.27 2
14:00 126 J/kg 1.2 K 0 % 0 % 0 % 0 m²/s² 0 0 2.85 2
15:00 136 J/kg 1.5 K 0 % 0 % 0 % 0 m²/s² 0 0 2.49 3
16:00 121 J/kg 2.2 K 0 % 0 % 0 % 0 m²/s² 0 0 3.91 80
17:00 68 J/kg 2.3 K 0 % 0 % 0 % 0 m²/s² 0 0 4.52 3
18:00 72 J/kg 2.9 K 0 % 0 % 0 % 0 m²/s² 0 0 5.69 2
19:00 75 J/kg 3.6 K 0 % 0 % 0 % 0 m²/s² 0 0 5.22 2
20:00 44 J/kg 4.9 K 0 % 0 % 0 % 0 m²/s² 0 0 5.71 2
21:00 26 J/kg 5.4 K 0 % 0 % 0 % 0 m²/s² 0 0 6.9 2
22:00 22 J/kg 6.9 K 0 % 0 % 0 % 0 m²/s² 0 0 11.13 3
23:00 13 J/kg 7.9 K 0 % 0 % 0 % 0 m²/s² 0 0 13.48 61
 08:12     16:49    Daglengte: 8:37 Zaterdag 14 Dec
00:00 9 J/kg 8.8 K 0 % 0 % 0 % 0 m²/s² 0 0 13.87 61
01:00 4 J/kg 9.8 K 0 % 0 % 0 % 0 m²/s² 0 0 13.1 61
02:00 6 J/kg 9.3 K 0 % 0 % 0 % 0 m²/s² 0 0 11.34 61
03:00 12 J/kg 8.9 K 0 % 0 % 0 % 0 m²/s² 0 0 10.61 61
04:00 16 J/kg 7.8 K 0 % 0 % 0 % 0 m²/s² 0 0 8.55 80
05:00 14 J/kg 5.4 K 0 % 0 % 0 % 0 m²/s² 0 0 5.55 61
06:00 13 J/kg 3.9 K 0 % 0 % 0 % 0 m²/s² 0 0 4.41 1
07:00 12 J/kg 5.2 K 0 % 0 % 0 % 0 m²/s² 0 0 6.19 0
08:00 10 J/kg 5.7 K 0 % 0 % 0 % 0 m²/s² 0 0 6.78 0
09:00 14 J/kg 6.2 K 0 % 0 % 0 % 0 m²/s² 0 0 8.3 1
10:00 20 J/kg 5.3 K 0 % 0 % 0 % 0 m²/s² 0 0 7.61 1
11:00 24 J/kg 5.6 K 0 % 0 % 0 % 0 m²/s² 0 0 7.79 3
12:00 36 J/kg 5.0 K 0 % 0 % 0 % 0 m²/s² 0 0 6.41 61
13:00 40 J/kg 4.4 K 0 % 0 % 0 % 0 m²/s² 0 0 6.26 2
14:00 40 J/kg 3.8 K 0 % 0 % 0 % 0 m²/s² 0 0 5.48 1
15:00 40 J/kg 3.6 K 0 % 0 % 0 % 0 m²/s² 0 0 4.5 2
16:00 43 J/kg 3.3 K 0 % 0 % 0 % 0 m²/s² 0 0 4.26 3
17:00 46 J/kg 2.3 K 0 % 0 % 0 % 0 m²/s² 0 0 2.63 3
Temp Baro Wind Neerslag
  EWN Forecast EWN WRFDA DWD ICON FMI HIRLAM MET Norway GFS
 08:10     16:49    Daglengte: 8:39 Vandaag
19:00 2.4° 1015.2 hPa 4.4 m/s 5.3 mm 3.6° 1011.3 hPa 5.5 m/s 11.9 mm 2.6° 1015.7 hPa 2.5 m/s 5.6 mm 2.1° 1014.3 hPa 6.5 m/s 0.0 mm 0.8° 1015.6 hPa 2.9 m/s 2.4° 1013.8 hPa 2.2 m/s
22:00 2.0° 1013.4 hPa 3.4 m/s 1.2 mm 3.9° 1010.4 hPa 5.4 m/s 19.5 mm 2.0° 1013.6 hPa 2.2 m/s 0.4 mm 2.0° 1012.1 hPa 4.7 m/s 0.0 mm 0.2° 1014.1 hPa 2.0 m/s 2.6° 1012.5 hPa 2.2 m/s
 08:11     16:49    Daglengte: 8:38 Morgen
01:00 1.7° 1010.9 hPa 2.6 m/s 0.0 mm 3.7° 1008.4 hPa 6.2 m/s 20.0 mm 1.7° 1011.2 hPa 1.9 m/s 0.0 mm 2.0° 1009.5 hPa 3.9 m/s 0.0 mm -0.1° 1011.3 hPa 1.5 m/s 2.4° 1010.9 hPa 2.6 m/s
04:00 2.1° 1010.7 hPa 4.6 m/s 6.6 mm 3.5° 1007.4 hPa 7.4 m/s 24.2 mm 1.5° 1011.0 hPa 2.7 m/s 3.0 mm 2.8° 1009.4 hPa 5.9 m/s 0.0 mm 0.7° 1011.2 hPa 3.0 m/s 2.2° 1010.5 hPa 2.8 m/s
07:00 1.6° 1011.9 hPa 3.7 m/s 6.1 mm 2.1° 1008.2 hPa 5.0 m/s 25.9 mm 1.3° 1012.2 hPa 2.3 m/s 1.8 mm 3.1° 1010.7 hPa 4.0 m/s 0.0 mm 0.2° 1012.5 hPa 3.0 m/s 2.0° 1011.7 hPa 2.3 m/s
10:00 2.1° 1012.1 hPa 3.8 m/s 0.0 mm 3.0° 1008.2 hPa 5.6 m/s 26.2 mm 2.0° 1013.0 hPa 3.2 m/s 0.3 mm 3.2° 1010.9 hPa 4.3 m/s 0.0 mm 1.0° 1012.6 hPa 2.6 m/s 2.2° 1011.4 hPa 1.9 m/s
13:00 3.7° 1009.8 hPa 4.7 m/s 0.0 mm 4.4° 1006.8 hPa 6.5 m/s 26.8 mm 3.5° 1010.5 hPa 5.0 m/s 0.0 mm 4.1° 1008.7 hPa 5.4 m/s 0.0 mm 2.3° 1010.2 hPa 3.4 m/s 3.5° 1009.5 hPa 2.8 m/s
16:00 3.2° 1005.8 hPa 3.9 m/s 0.0 mm 4.0° 1002.8 hPa 6.0 m/s 27.1 mm 2.9° 1007.8 hPa 3.7 m/s 0.0 mm 4.2° 1005.7 hPa 4.9 m/s 0.0 mm 1.0° 1005.7 hPa 1.9 m/s 2.0° 1006.5 hPa 3.0 m/s
19:00 1.1° 1002.2 hPa 3.2 m/s 0.0 mm 2.3° 999.2 hPa 4.3 m/s 27.1 mm 2.0° 1004.1 hPa 3.4 m/s 0.0 mm 3.3° 1002.5 hPa 3.3 m/s 0.0 mm -3.0° 1000.9 hPa 2.3 m/s -0.8° 1004.5 hPa 1.6 m/s
22:00 2.4° 997.6 hPa 4.5 m/s 0.0 mm 4.8° 995.0 hPa 7.0 m/s 27.1 mm 2.5° 999.4 hPa 3.9 m/s 0.0 mm 3.6° 997.0 hPa 5.9 m/s 0.0 mm 0.3° 997.5 hPa 2.9 m/s 0.2° 999.9 hPa 2.5 m/s
 08:11     16:49    Daglengte: 8:38 Vrijdag 13 Dec
01:00 2.8° 994.6 hPa 6.4 m/s 5.7 mm 5.3° 991.1 hPa 10.0 m/s 35.4 mm 1.8° 996.1 hPa 4.2 m/s 2.8 mm 5.4° 992.9 hPa 9.8 m/s 0.0 mm 1.5° 994.5 hPa 3.3 m/s 0.3° 997.0 hPa 4.1 m/s
04:00 3.3° 990.6 hPa 6.9 m/s 10.9 mm 5.9° 987.1 hPa 10.7 m/s 42.3 mm 1.2° 993.8 hPa 4.8 m/s 6.9 mm 6.0° 988.9 hPa 11.5 m/s 0.0 mm 1.6° 990.4 hPa 4.8 m/s 2.6° 992.7 hPa 4.6 m/s
07:00 4.6° 986.6 hPa 7.0 m/s 13.5 mm 7.1° 984.7 hPa 9.4 m/s 60.8 mm 3.4° 988.8 hPa 6.8 m/s 6.1 mm 7.1° 985.7 hPa 8.8 m/s 0.0 mm 2.8° 986.3 hPa 3.4 m/s 4.0° 990.1 hPa 4.3 m/s
10:00 5.0° 988.7 hPa 7.2 m/s 17.2 mm 5.0° 986.0 hPa 7.0 m/s 71.8 mm 6.3° 991.4 hPa 8.5 m/s 2.0 mm 2.1° 988.5 hPa 4.0 m/s 3.5° 990.9 hPa 3.4 m/s
13:00 5.1° 990.9 hPa 6.3 m/s 16.5 mm 4.9° 988.5 hPa 9.5 m/s 76.1 mm 5.7° 993.1 hPa 5.7 m/s 0.3 mm 3.4° 990.6 hPa 4.1 m/s 3.9° 992.8 hPa 3.7 m/s
16:00 4.8° 994.2 hPa 4.8 m/s 16.3 mm 4.9° 990.4 hPa 7.5 m/s 79.1 mm 4.8° 995.4 hPa 4.1 m/s 0.3 mm 3.1° 994.2 hPa 3.2 m/s 2.1° 996.1 hPa 2.3 m/s
19:00 4.1° 997.9 hPa 4.4 m/s 11.3 mm 5.1° 993.2 hPa 9.2 m/s 82.3 mm 3.8° 998.9 hPa 3.6 m/s 0.1 mm 3.0° 998.0 hPa 3.1 m/s 1.8° 1000.7 hPa 2.1 m/s
22:00 3.7° 1000.0 hPa 4.6 m/s 0.0 mm 5.5° 994.9 hPa 12.9 m/s 90.9 mm 3.1° 1000.5 hPa 3.5 m/s 0.0 mm 3.4° 1000.7 hPa 3.1 m/s 1.8° 1003.8 hPa 2.6 m/s
 08:12     16:49    Daglengte: 8:37 Zaterdag 14 Dec
01:00 3.0° 999.8 hPa 5.9 m/s 17.6 mm 4.9° 996.9 hPa 11.7 m/s 97.0 mm 2.3° 999.8 hPa 5.7 m/s 3.2 mm 2.7° 1001.4 hPa 2.6 m/s 2.4° 1006.7 hPa 3.2 m/s
04:00 4.1° 1001.1 hPa 5.4 m/s 16.0 mm 3.8° 1001.6 hPa 6.5 m/s 97.6 mm 5.1° 1000.1 hPa 4.6 m/s 2.6 mm 2.1° 1001.9 hPa 3.7 m/s 2.3° 1007.2 hPa 3.7 m/s
07:00 5.6° 1001.7 hPa 6.3 m/s 19.9 mm 4.1° 1002.6 hPa 6.0 m/s 104.4 mm 8.2° 1001.6 hPa 7.4 m/s 1.1 mm 4.4° 1001.5 hPa 3.8 m/s 2.1° 1007.9 hPa 3.0 m/s
10:00 7.2° 1005.4 hPa 5.7 m/s 37.9 mm 7.3° 1004.3 hPa 7.7 m/s 111.1 mm 8.1° 1006.0 hPa 5.7 m/s 0.0 mm 5.7° 1005.0 hPa 3.5 m/s 3.2° 1008.2 hPa 3.1 m/s
13:00 8.5° 1008.0 hPa 6.9 m/s 20.1 mm 9.2° 1004.6 hPa 8.1 m/s 112.4 mm 9.4° 1005.7 hPa 7.6 m/s 0.2 mm 6.9° 1008.6 hPa 3.1 m/s 4.7° 1008.1 hPa 3.7 m/s
16:00 7.4° 1009.1 hPa 4.1 m/s 0.0 mm 9.2° 1006.1 hPa 8.0 m/s 113.7 mm 8.9° 1007.3 hPa 5.0 m/s 0.0 mm 5.8° 1011.2 hPa 2.6 m/s 5.5° 1009.1 hPa 3.6 m/s
19:00 6.6° 1011.2 hPa 3.2 m/s 38.9 mm 9.4° 1006.9 hPa 9.4 m/s 116.3 mm 8.1° 1009.1 hPa 3.0 m/s 0.2 mm 4.8° 1013.8 hPa 2.1 m/s 5.9° 1010.6 hPa 3.1 m/s
22:00 4.5° 1013.1 hPa 1.8 m/s 78.4 mm 4.4° 1013.3 hPa 1.7 m/s 6.0° 1011.8 hPa 3.1 m/s 78.4 mm
 08:13     16:50    Daglengte: 8:37 Zondag 15 Dec
01:00 4.3° 1012.9 hPa 1.6 m/s 78.5 mm 4.2° 1013.0 hPa 1.5 m/s 5.5° 1011.5 hPa 2.9 m/s 78.5 mm
04:00 4.9° 1012.4 hPa 1.8 m/s 78.5 mm 4.9° 1012.4 hPa 1.7 m/s 5.2° 1012.1 hPa 3.4 m/s 78.5 mm
07:00 5.6° 1011.9 hPa 2.0 m/s 78.5 mm 5.6° 1011.8 hPa 1.9 m/s 5.8° 1012.8 hPa 3.1 m/s 78.5 mm
10:00 7.0° 1011.7 hPa 2.6 m/s 80.4 mm 7.1° 1011.5 hPa 2.5 m/s 5.9° 1014.2 hPa 3.2 m/s 80.4 mm
13:00 8.5° 1011.4 hPa 3.1 m/s 81.1 mm 8.7° 1011.1 hPa 3.1 m/s 6.2° 1015.0 hPa 2.9 m/s 81.1 mm
16:00 6.0° 1011.6 hPa 2.5 m/s 81.7 mm 6.0° 1011.3 hPa 2.5 m/s 6.3° 1015.3 hPa 1.9 m/s 81.7 mm
19:00 3.5° 1011.9 hPa 2.0 m/s 81.7 mm 3.3° 1011.5 hPa 2.0 m/s 5.6° 1016.1 hPa 1.6 m/s 81.7 mm
22:00 2.5° 1013.0 hPa 1.9 m/s 81.7 mm 2.1° 1012.7 hPa 1.9 m/s 6.1° 1016.4 hPa 1.9 m/s 81.7 mm
 08:14     16:50    Daglengte: 8:36 Maandag 16 Dec
01:00 1.4° 1014.1 hPa 1.8 m/s 81.7 mm 1.0° 1013.9 hPa 1.8 m/s 6.1° 1016.2 hPa 1.3 m/s 81.7 mm
04:00 2.0° 1013.6 hPa 1.2 m/s 81.7 mm 1.8° 1013.5 hPa 1.2 m/s 5.3° 1014.9 hPa 0.6 m/s 81.7 mm
07:00 2.7° 1013.2 hPa 0.6 m/s 81.7 mm 2.5° 1013.1 hPa 0.6 m/s 5.0° 1014.3 hPa 1.2 m/s 81.7 mm
10:00 4.6° 1012.5 hPa 0.8 m/s 81.7 mm 4.5° 1012.3 hPa 0.8 m/s 5.9° 1014.4 hPa 1.0 m/s 81.7 mm
13:00 6.6° 1011.6 hPa 0.9 m/s 81.7 mm 6.5° 1011.5 hPa 0.9 m/s 7.5° 1012.3 hPa 0.5 m/s 81.7 mm
16:00 5.4° 1010.2 hPa 0.7 m/s 81.7 mm 5.3° 1010.1 hPa 0.7 m/s 6.4° 1011.0 hPa 0.3 m/s 81.7 mm
19:00 4.2° 1009.0 hPa 0.5 m/s 81.7 mm 4.1° 1008.8 hPa 0.5 m/s 5.1° 1010.7 hPa 0.7 m/s 81.7 mm
22:00 5.0° 1008.3 hPa 0.5 m/s 81.7 mm 4.9° 1008.2 hPa 0.5 m/s 5.1° 1009.9 hPa 0.4 m/s 81.7 mm
 08:14     16:50    Daglengte: 8:36 Dinsdag 17 Dec
01:00 5.8° 1007.7 hPa 0.5 m/s 81.7 mm 5.8° 1007.6 hPa 0.5 m/s 5.3° 1008.9 hPa 0.8 m/s 81.7 mm
04:00 5.4° 1007.0 hPa 0.6 m/s 81.7 mm 5.5° 1006.9 hPa 0.6 m/s 4.8° 1007.9 hPa 0.2 m/s 81.7 mm
07:00 5.2° 1006.3 hPa 0.7 m/s 81.7 mm 5.2° 1006.2 hPa 0.7 m/s 5.0° 1007.3 hPa 0.8 m/s 81.7 mm
10:00 5.6° 1006.9 hPa 1.1 m/s 81.7 mm 5.6° 1006.8 hPa 1.1 m/s 6.3° 1007.6 hPa 1.0 m/s 81.7 mm
13:00 6.1° 1007.4 hPa 1.4 m/s 81.7 mm 5.9° 1007.4 hPa 1.5 m/s 8.5° 1007.1 hPa 0.3 m/s 81.7 mm
16:00 6.2° 1007.7 hPa 1.7 m/s 81.7 mm 6.1° 1007.5 hPa 1.8 m/s 7.7° 1009.3 hPa 1.0 m/s 81.7 mm
19:00 6.2° 1008.0 hPa 1.9 m/s 82.2 mm 6.2° 1007.7 hPa 2.0 m/s 6.8° 1011.8 hPa 1.0 m/s 82.2 mm
22:00 6.6° 1009.7 hPa 1.2 m/s 82.6 mm 6.6° 1009.2 hPa 1.2 m/s 6.4° 1015.1 hPa 1.0 m/s 82.6 mm
 08:15     16:50    Daglengte: 8:35 Woensdag 18 Dec
01:00 6.9° 1011.3 hPa 0.5 m/s 83.0 mm 7.0° 1010.7 hPa 0.5 m/s 6.1° 1017.5 hPa 0.8 m/s 83.0 mm
04:00 6.2° 1012.4 hPa 0.5 m/s 83.5 mm 6.2° 1011.8 hPa 0.5 m/s 6.2° 1019.1 hPa 0.2 m/s 83.5 mm
07:00 5.5° 1013.5 hPa 0.5 m/s 83.6 mm 5.4° 1012.8 hPa 0.5 m/s 6.2° 1020.8 hPa 0.3 m/s 83.6 mm
10:00 5.8° 1014.3 hPa 1.0 m/s 83.6 mm 5.7° 1013.5 hPa 1.1 m/s 7.2° 1023.0 hPa 0.5 m/s 83.6 mm
13:00 6.3° 1015.0 hPa 1.6 m/s 83.6 mm 6.0° 1014.3 hPa 1.7 m/s 9.1° 1023.2 hPa 0.7 m/s 83.6 mm
16:00 6.4° 1015.3 hPa 1.5 m/s 83.6 mm 6.3° 1014.5 hPa 1.6 m/s 8.1° 1023.7 hPa 1.0 m/s 83.6 mm
19:00 6.5° 1015.6 hPa 1.5 m/s 83.6 mm 6.6° 1014.7 hPa 1.5 m/s 5.5° 1025.3 hPa 1.0 m/s 83.6 mm
 08:16     16:51    Daglengte: 8:35 Donderdag 19 Dec
01:00 4.4° 1015.6 hPa 1.0 m/s 83.6 mm 4.4° 1014.6 hPa 1.1 m/s 4.4° 1026.9 hPa 0.5 m/s 83.6 mm
07:00 3.9° 1013.8 hPa 0.3 m/s 83.6 mm 3.9° 1012.7 hPa 0.3 m/s 3.7° 1025.8 hPa 0.9 m/s 83.6 mm
13:00 6.4° 1011.3 hPa 0.8 m/s 83.6 mm 6.2° 1010.1 hPa 0.8 m/s 9.0° 1024.6 hPa 0.5 m/s 83.6 mm
19:00 2.9° 1010.5 hPa 1.4 m/s 83.6 mm 2.7° 1009.3 hPa 1.5 m/s 5.1° 1024.0 hPa 0.7 m/s 83.6 mm
 08:16     16:51    Daglengte: 8:35 Vrijdag 20 Dec
01:00 2.3° 1010.4 hPa 0.2 m/s 83.6 mm 2.2° 1009.3 hPa 0.2 m/s 4.0° 1022.7 hPa 0.6 m/s 83.6 mm
07:00 -0.4° 1010.2 hPa 0.6 m/s 83.6 mm -0.7° 1009.2 hPa 0.6 m/s 3.2° 1021.3 hPa 0.2 m/s 83.6 mm
13:00 5.9° 1008.2 hPa 0.8 m/s 83.6 mm 5.6° 1007.2 hPa 0.8 m/s 9.0° 1019.0 hPa 0.8 m/s 83.6 mm
19:00 4.4° 1006.1 hPa 0.2 m/s 83.6 mm 4.4° 1005.0 hPa 0.2 m/s 4.9° 1018.6 hPa 0.2 m/s 83.6 mm
 08:17     16:52    Daglengte: 8:35 Zaterdag 21 Dec
01:00 3.1° 1018.0 hPa 0.1 m/s 83.6 mm 3.1° 1018.0 hPa 0.1 m/s 83.6 mm
07:00 2.4° 1016.5 hPa 0.7 m/s 83.6 mm 2.4° 1016.5 hPa 0.7 m/s 83.6 mm
13:00 10.5° 1016.8 hPa 2.1 m/s 0.5 mm
19:00 6.5° 1017.7 hPa 1.7 m/s 1.9 mm
 08:17     16:52    Daglengte: 8:35 Zondag 22 Dec
01:00 5.3° 1018.6 hPa 1.6 m/s 1.4 mm
07:00 4.5° 1018.6 hPa 1.1 m/s 1.3 mm
13:00 8.2° 1018.2 hPa 1.6 m/s 1.2 mm
19:00 4.1° 1018.5 hPa 1.1 m/s 1.2 mm
 08:18     16:53    Daglengte: 8:35 Maandag 23 Dec
01:00 3.6° 1018.8 hPa 1.2 m/s 0.8 mm
07:00 2.8° 1018.1 hPa 1.2 m/s 0.9 mm
13:00 7.3° 1017.2 hPa 0.7 m/s 0.7 mm
19:00 3.4° 1018.1 hPa 0.6 m/s 0.5 mm
 08:18     16:53    Daglengte: 8:35 Dinsdag 24 Dec
01:00 2.2° 1018.6 hPa 1.1 m/s 0.6 mm
07:00 1.7° 1018.6 hPa 1.2 m/s 0.5 mm
13:00 6.6° 1017.8 hPa 0.7 m/s 0.2 mm
19:00 2.4° 1019.0 hPa 1.4 m/s 0.3 mm
 08:18     16:54    Daglengte: 8:36 Woensdag 25 Dec
01:00 1.8° 1019.9 hPa 1.4 m/s 0.6 mm
07:00 1.3° 1020.0 hPa 1.3 m/s 0.9 mm
13:00 6.9° 1019.1 hPa 0.7 m/s 1.1 mm
19:00 2.4° 1019.5 hPa 0.7 m/s 1.0 mm
 08:19     16:55    Daglengte: 8:36 Donderdag 26 Dec
01:00 1.7° 1019.6 hPa 1.2 m/s 0.5 mm
07:00 1.5° 1018.5 hPa 1.4 m/s 0.9 mm
13:00 6.0° 1017.4 hPa 0.7 m/s 1.3 mm
FMI Hirlam - 7.5 km EWN WRFDA - 12 km DWD ICON - 7 km GFS - 25 km Basiskaart






























































Updatetijd (Europe/Amsterdam) Resolutie Lengte Stap
FMI Hirlam 12:15, 18:15, 00:15, 06:15 7.5 km 49h 1h
EWN WRFDA 14:30, 20:30, 02:30, 08:30 12 km 73h 1h
DWD ICON 10:45, 16:45, 22:45, 04:45 7 km 75h 1h
GFS 13:30, 19:30, 01:30, 07:30 25 km 237h 3h
30+ mm
25-30 mm
20-25 mm
15-20 mm
10-15 mm
6-10 mm
4-6 mm
2-4 mm
1-2 mm
0.5-1 mm
0.2-0.5 mm
0.1-0.2 mm
30+ mm
25-30 mm
20-25 mm
15-20 mm
10-15 mm
6-10 mm
4-6 mm
2-4 mm
1-2 mm
0.5-1 mm
0.2-0.5 mm
0.1-0.2 mm
Sneeuwval
Natte sneeuw
Hagel
Vorst
30+ mm
25-30 mm
20-25 mm
15-20 mm
10-15 mm
6-10 mm
4-6 mm
2-4 mm
1-2 mm
0.5-1 mm
0.2-0.5 mm
0.1-0.2 mm
Sneeuwval
Natte sneeuw
Hagel
Vorst
Onweer
50 mm
40 mm
30 mm
26 mm
22 mm
18 mm
14 mm
10 mm
9 mm
8 mm
7 mm
6 mm
5 mm
4.5 mm
4 mm
3.5 mm
3 mm
2.5 mm
2 mm
1.5 mm
1 mm
0.8 mm
0.6 mm
0.4 mm
0.2 mm
0.05 mm
35°
30°
25°
20°
15°
10°
-5°
-10°
-15°
-20°
-25°
-30°
-35°
120> km/h
105 km/h
90 km/h
75 km/h
60 km/h
50 km/h
40 km/h
30 km/h
20 km/h
10 km/h
0 km/h
2600 J/kg
2400 J/kg
2200 J/kg
2000 J/kg
1800 J/kg
1600 J/kg
1400 J/kg
1200 J/kg
1000 J/kg
800 J/kg
600 J/kg
400 J/kg
200 J/kg
70 dBZ
65 dBZ
60 dBZ
55 dBZ
50 dBZ
45 dBZ
40 dBZ
35 dBZ
30 dBZ
25 dBZ
20 dBZ
15 dBZ
10 dBZ
5 dBZ
-1 K
-2 K
-3 K
-4 K
-5 K
-6 K
-7 K
-8 K
-9 K
950 m²/s²
900 m²/s²
850 m²/s²
800 m²/s²
750 m²/s²
700 m²/s²
650 m²/s²
600 m²/s²
550 m²/s²
500 m²/s²
450 m²/s²
400 m²/s²
350 m²/s²
300 m²/s²
250 m²/s²
200 m²/s²
150 m²/s²
100 m²/s²
46 m/s
44 m/s
42 m/s
40 m/s
38 m/s
36 m/s
34 m/s
32 m/s
30 m/s
28 m/s
26 m/s
24 m/s
22 m/s
20 m/s
16 m/s
12 m/s
8 m/s
4 m/s
30 m/s
28 m/s
26 m/s
24 m/s
22 m/s
20 m/s
18 m/s
16 m/s
14 m/s
12 m/s
10 m/s
8 m/s
6 m/s
4 m/s
2 m/s
3.0
2.8
2.6
2.4
2.2
2.0
1.8
1.6
1.4
1.2
1.0
0.8
0.6
0.4
0.2
15
14
13
12
11
10
9
8
7
6
5
4
3
2
1
90%
80%
70%
60%
50%
40%
30%
20%
10%
42
40
38
36
34
32
30
28
26
24
22
20
18
16
14
12
90+ cm
80-90 cm
70-80 cm
60-70 cm
50-60 cm
40-50 cm
30-40 cm
20-30 cm
10-20 cm
1-10 cm
Sneeuwval
Natte sneeuw
Regen
>120 mm
115 mm
110 mm
105 mm
100 mm
95 mm
90 mm
85 mm
80 mm
75 mm
70 mm
65 mm